STARLINK-4604 (53618 NORAD) Tracking and Keplerian Element Data

This shows tracking and keplerian element data for the satellite.

Feedback or suggestion? Click here.




ElementValue
Catalog53618
NameSTARLINK-4604
Epoch Orbit130
Epoch Day324.91667824
Epoch Year2022
RAAN242.468
Inclination53.2146
Eccentricity0.0001581
Argument of Perigee54.1657
Mean Anonmoly45.3814
Mean Motion15.08848193
Decay Rate-0.00020194
L11 53618U 22104AG 22324.91667824 -.00020194 00000+0 -12540-2 0 9999
L22 53618 53.2146 242.4680 0001581 54.1657 45.3814 15.08848193 1301



Live tracking and technical data element details for STARLINK-4604 (NORAD 53618). STARLINK-4604 can be tracked NOW for your location showing map with azimuth and elevation plus other details from your city location.







IsCatalogInMostPopularTable: catalog: 53618, numindb: 1
Update: records affected: 1



GetName: 53618 STARLINK-4604

Hit Count: updated at: Thu, 08 Dec 2022 19:52:11 GMT